Other Public Products
Issued by NWS Grand Forks, ND

Home | Current Version | Previous Version | Graphics & Text | Print | Product List | Glossary On
Versions: 1 2 3 4 5 6 7 8 9 10 11 12 13 14 15 16 17 18 19 20 21 22 23 24 25 26 27 28 29 30 31 32 33 34 35 36 37 38 39 40 41 42 43 44 45 46 47 48 49 50
000
FPUS83 KFGF 291310
OPUFGF
PRAIRIE TO PINES WEATHER ROUNDUP
NATIONAL WEATHER SERVICE EASTERN NORTH DAKOTA/GRAND FORKS ND
800 AM CDT SUN MAY 29 2016

 **SATELLITE DATA USED TO AUGMENT SKY COVER AT AUTOMATED STATIONS**
 *****  WEATHER ACROSS EASTERN NORTH DAKOTA  *****

CITY           SKY/WX    TMP DP  RH WIND       PRES   REMARKS
GRAND FORKS    CLOUDY    59  56  89 NW10      29.92R
GRAND FORKS AF CLOUDY    59  57  94 N7        29.93R
GRAND CITY NWS   N/A     57 N/A N/A NW6         N/A
BUXTON           N/A     59  59  99 NW10        N/A
DEVILS LAKE    CLOUDY    60  57  89 W8        29.95S
FARGO          PTSUNNY   61  57  87 NW10      29.92R
WAHPETON ARPT  MOSUNNY   59  55  88 NW6       29.94S
$$

 *****  WEATHER ACROSS CENTRAL AND WESTERN NORTH DAKOTA  *****

CITY           SKY/WX    TMP DP  RH WIND       PRES   REMARKS
JAMESTOWN      FOG       57  57 100 W9        29.96R VSB 1
BISMARCK       SUNNY     54  52  93 W3        30.02R
MINOT          SUNNY     58  52  80 SW5       29.96S
MINOT AFB      SUNNY     56  51  83 W5        29.96S
GARRISON         N/A     53  52  96 W6        30.00R
WILLISTON      SUNNY     50  47  89 S5        30.01R
DICKINSON      SUNNY     52  46  80 NW8       30.03R
HETTINGER      SUNNY     49  48  97 NW3       30.07R
$$

 *****  OTHER OBSERVATIONS NORTHEAST NORTH DAKOTA  *****

CITY           SKY/WX    TMP DP  RH WIND       PRES   REMARKS
WALHALLA       FAIR      55  52  88 N8        29.93S
LANGDON        FOG       55  55 100 NW7       29.94S VSB 1/2
CAVALIER       CLOUDY    57  55  94 NW9       29.93R
GRAFTON        CLOUDY    59  59 100 W8        29.94S
CANDO          NOT AVBL
FORT TOTTEN    NOT AVBL
ROLLA          FAIR      55  55 100 W10       29.96S
RUGBY          FAIR      55  55 100 W8        29.96S
 ***** THE ABOVE OBSERVATIONS ARE NON NWS ARE NOT QUALITY
        CONTROLLED AND MAY MIS-REPORT RAIN FOR SNOW...
$$

 *****  OTHER OBSERVATIONS SOUTHEAST NORTH DAKOTA *****

CITY           SKY/WX    TMP DP  RH WIND       PRES   REMARKS
COOPERSTOWN    NOT AVBL
VALLEY CITY    FAIR      57  57 100 NW7       29.97R FOG
OAKES            N/A    N/A N/A N/A MISG        N/A
GWINNER        FAIR      61  57  88 W12       29.96R
SHEYENNE NWR     N/A     60  60  99 NW2       29.95S
BUFFALO          N/A     57  55  92 NW6         N/A
WYNDMERE         N/A     63  57  82 W5          N/A
 ***** THE ABOVE OBSERVATIONS ARE NON NWS ARE NOT QUALITY
       CONTROLLED AND MAY MIS-REPORT RAIN FOR SNOW...
$$

  *****  WEATHER ACROSS NORTHERN MINNESOTA  *****

CITY           SKY/WX    TMP DP  RH WIND       PRES   REMARKS
FLAG ISLAND    DRIZZLE   54  52  94 NW14      29.84S
WARROAD        LGT RAIN  55  52  88 NW7       29.88R
ROSEAU         CLOUDY    55  50  82 NW8       29.87F
HALLOCK        CLOUDY    57  55  94 NW8       29.91R
THF RVR FALLS  CLOUDY    57  54  88 NW10      29.92R
HALSTAD        NOT AVBL
FOSSTON        CLOUDY    55  55 100 W8        29.91R
BAUDETTE       LGT RAIN  55  53  93 NW15      29.85R
WASKISH        DRIZZLE   55  55 100 W12       29.86R
CROOKSTON      CLOUDY    59  57  94 NW7       29.92R
$$
  *****  WEATHER ACROSS CENTRAL AND WEST MINNESOTA  *****

CITY           SKY/WX    TMP DP  RH WIND       PRES   REMARKS
BEMIDJI        CLOUDY    56  55  94 NW14      29.88R
PARK RAPIDS    CLOUDY    59  55  87 NW10      29.89R
WADENA         CLOUDY    57  55  94 NW10      29.91R
DETROIT LAKES  CLOUDY    59  55  88 NW10      29.93R
MOORHEAD       MOSUNNY   61  57  88 NW9       29.93R
FERGUS FALLS   PTSUNNY   59  59 100 NW8       29.90S FOG
ELBOW LAKE     FOG       57  57 100 NW6       29.94R VSB 1
MORRIS MN      PTSUNNY   61  59  94 NW7       29.93R FOG
STAPLES        CLOUDY    57  55  94 NW7       29.90R
WHEATON        SUNNY     63  59  88 W9        29.96S
$$
  *****  WEATHER ELSEWHERE ACROSS MINNESOTA  *****

CITY           SKY/WX    TMP DP  RH WIND       PRES   REMARKS
DULUTH         CLOUDY    59  58  96 W10       29.81R
INTRNTL FALLS  LGT RAIN  55  54  96 W6        29.81R FOG
ELY            DRIZZLE   59  57  94 SW3       29.78S
CLOQUET        CLOUDY    61  57  88 W6        29.82R
BRAINERD       CLOUDY    59  57  93 NW9       29.88R
HIBBING        CLOUDY    56  55  97 NW12G21   29.82R
ALEXANDRIA     PTSUNNY   60  57  89 NW12      29.93S
SAINT CLOUD    CLOUDY    62  59  90 W10       29.89R
MINNEAPOLIS    CLOUDY    64  58  80 W12       29.90R
$$

  *****  WEATHER ACROSS SOUTH DAKOTA  *****

CITY           SKY/WX    TMP DP  RH WIND       PRES   REMARKS
SIOUX FALLS    MOSUNNY   62  59  90 VRB3      30.02R
BROOKINGS      PTSUNNY   58  56  93 W9        30.00R FOG
WATERTOWN      SUNNY     60  55  83 W8        29.98R
HURON          SUNNY     60  55  83 W5        30.02R
SISSETON         N/A     64  57  78 NW5       29.94R
ABERDEEN       SUNNY     60  54  80 W9        29.99R
MITCHELL       MOSUNNY   60  58  92 W5        30.03R
PIERRE         SUNNY     55  53  93 SW7       30.05R
MOBRIDGE       SUNNY     57  51  80 NW7       30.02R
RAPID CITY     CLOUDY    54  47  77 NW7       30.09R
$$

  *****  SOME WEATHER IN NEARBY STATES *****

CITY           SKY/WX    TMP DP  RH WIND       PRES   REMARKS
GLASGOW MT     SUNNY     51  40  65 CALM      30.00S
GREAT FALLS MT MOSUNNY   50  37  61 S9        30.03S
CHEYENNE WY    SUNNY     50  38  63 W10       30.18S
SCOTTSBLUFF NE SUNNY     50  45  83 NW7       30.12R
OMAHA NE       CLOUDY    60  57  89 SE3       30.07R
DES MOINES IA  MOSUNNY   64  57  78 W6        30.05R
DAVENPORT IA   CLOUDY    65  59  81 W14       30.02R
CHICAGO IL     MOSUNNY   70  62  76 SW13      29.98S
EAU CLAIRE WI  CLOUDY    63  61  93 W9        29.87R
LA CROSSE WI   PTSUNNY   66  59  78 W13       29.92R
$$

  *****  SOME NATIONAL WEATHER *****

CITY           SKY/WX    TMP DP  RH WIND       PRES   REMARKS
LA GUARDIA NY  MOSUNNY   80  62  54 S8        30.13F
RALEIGH NC     RAIN      70  69  97 NE7       30.11R FOG
ATLANTA GA     CLOUDY    74  62  66 NW5       30.14R
NEW ORLEANS LA PTSUNNY   78  72  81 E5        30.11R
OKLAHOMA CITY  PTSUNNY   68  67  96 CALM      30.10R
ALBUQUERQUE NM CLOUDY    59  19  21 NE3       30.14R
SALT LAKE CITY MOCLDY    60  43  53 SE8       30.08R
LOS ANGELES CA CLOUDY    59  55  87 SW5       29.98R
BOISE ID       CLEAR     52  34  50 SE12      30.03R
SEATTLE WA     CLOUDY    53  50  89 SW8       30.07S
$$

*** WEATHER ACROSS MANITOBA...SASKATCHEWAN AND ONTARIO ***
                ***ONTARIO***

CITY           SKY/WX    TMP DP  RH WIND       PRES   REMARKS
GERALDTON      DRIZZLE   55  54  94 NE6       29.78S FOG
THUNDER BAY    FOG       59  57  94 E5        29.76R VSB 1
SIOUX LOOKOUT  NOT AVBL
TORONTO        PTSUNNY   79  64  61 SW8       30.06R
BIG TROUT LK   LGT RAIN  43  41  93 E8        30.02S
PICKLE LAKE    LGT RAIN  46  45  93 E10       29.86S FOG
DRYDEN         LGT RAIN  52  52 100 NE5       29.80S FOG
KENORA         LGT RAIN  52  52 100 N8        29.84S
$$
                *** MANITOBA***

CITY           SKY/WX    TMP DP  RH WIND       PRES   REMARKS
BRANDON        CLOUDY    52  52 100 W6        29.94S
DAUPHIN        LGT RAIN  50  48  93 W3        29.94S
ISLAND LAKE    CLOUDY    52  46  82 E5        29.97S
PILOT MOUND      N/A     54  52  94 W6          N/A
THE PAS        DRIZZLE   46  45  93 NE5       29.96S
THOMPSON       DRIZZLE   46  46 100 NE5       30.01F FOG
WINNIPEG       CLOUDY    54  54 100 NW8       29.92R
LYNN LAKE      CLOUDY    45  41  87 NE3       30.02F
CHURCHILL      CLOUDY    27  27 100 E9        30.24S WCI  17
$$
                ***SASKATCHEWAN***

CITY           SKY/WX    TMP DP  RH WIND       PRES   REMARKS
ESTEVAN        MOSUNNY   50  48  93 W8        29.97R
KINDERSLEY     MOSUNNY   46  43  87 S8        29.88S
LLOYDMINSTER   FOG       45  45 100 N7        29.87F VSB 1/4
PRINCE ALBERT  DRIZZLE   48  46  93 E8        29.87S FOG
REGINA         SUNNY     50  48  93 SW5       29.94R
YORKTON        MOSUNNY   54  52  94 S7        29.91S
N. BATTLEFORD  SUNNY     48  48 100 W6        29.89R   C1F1C2F2C3F3C4F4C5F5C6F6C7F7C8F8C9F9CaFaCbFbCcFcCdFdCe!



USA.gov is the U.S. government's official web portal to all federal, state and local government web resources and services.